contact:dominique.lefevre@mio.osupytheas.fr, maurice.libes@osupytheas.fr
Project:EMSO Ligure-ouest http://www.emso-fr.org/EMSO-France
Sensor Aquadopp, line 13 Serial AQD14315 
DOI : "https://doi.org/10.17882/74513; https://doi.org/10.17882/83244" 
Title:EMSO Ligure Ouest : Data ligne ALBATROSS capteur AQUADOPP - deploiement 2021
Id,Date,Profondeur,Latitude,Longitude,X_East,Y_North,Z_Up,Amplitude_X,Amplitude_Y,Amplitude_Z,Batterie,SoundSpeed,Heading,Pitch,Roll,Pressure,Temperature,Speed,Direction
, , m, degrees North, degrees East, m.s-1, m.s-1,m.s-1, 1, 1, 1, Volt, m.s-1, degree, degree, degree, dbar, degree_C, m.s-1, degree
13,2022-07-16T23:30:00,2400.0,42.79,6.0312,0.025,-0.002,0.004,66.0,57.0,59.0,13.3,1504.9,118.3,0.0,-0.5,2393.234,13.34,0.025,94.6
13,2022-07-17T00:00:00,2400.0,42.79,6.0312,0.021,0.017,-0.015,65.0,58.0,60.0,13.3,1504.9,122.4,-0.1,-0.5,2393.22,13.34,0.027,51.0
13,2022-07-17T00:30:00,2400.0,42.79,6.0312,0.015,0.003,0.023,64.0,61.0,61.0,13.3,1504.9,117.2,-0.1,-0.5,2393.156,13.34,0.015,78.7
13,2022-07-17T01:00:00,2400.0,42.79,6.0312,0.034,0.004,0.032,65.0,61.0,63.0,13.3,1504.9,117.7,-0.1,-0.5,2393.148,13.34,0.034,83.3
13,2022-07-17T01:30:00,2400.0,42.79,6.0312,0.035,0.004,0.01,65.0,57.0,60.0,13.3,1504.9,118.4,-0.1,-0.5,2393.153,13.34,0.035,83.5
13,2022-07-17T02:00:00,2400.0,42.79,6.0312,0.029,0.028,0.005,66.0,61.0,63.0,13.3,1504.9,118.3,-0.2,-0.5,2393.102,13.34,0.04,46.0
13,2022-07-17T02:30:00,2400.0,42.79,6.0312,0.03,0.019,-0.04,67.0,59.0,64.0,13.3,1504.9,117.7,-0.1,-0.5,2393.13,13.34,0.035,57.7
13,2022-07-17T03:00:00,2400.0,42.79,6.0312,0.027,0.023,-0.024,71.0,62.0,63.0,13.3,1504.9,121.9,-0.1,-0.5,2393.084,13.34,0.035,49.6
13,2022-07-17T03:30:00,2400.0,42.79,6.0312,0.042,0.013,0.016,66.0,64.0,62.0,13.3,1504.9,117.3,-0.2,-0.4,2393.05,13.34,0.043,72.8
13,2022-07-17T04:00:00,2400.0,42.79,6.0312,0.026,0.02,-0.015,67.0,57.0,62.0,13.3,1504.9,118.4,-0.4,-0.4,2393.007,13.34,0.032,52.4
13,2022-07-17T04:30:00,2400.0,42.79,6.0312,0.034,0.015,-0.007,66.0,61.0,59.0,13.3,1504.9,117.7,-0.3,-0.4,2393.028,13.34,0.037,66.2
13,2022-07-17T05:00:00,2400.0,42.79,6.0312,0.057,0.037,-0.02,66.0,60.0,63.0,13.3,1504.9,120.5,0.4,-0.5,2392.994,13.34,0.067,57.0
13,2022-07-17T05:30:00,2400.0,42.79,6.0312,0.043,0.02,-0.017,68.0,61.0,64.0,13.3,1504.9,123.3,-0.5,-0.5,2393.029,13.34,0.047,65.1
13,2022-07-17T06:00:00,2400.0,42.79,6.0312,0.058,0.035,-0.025,67.0,62.0,62.0,13.3,1504.9,122.5,0.4,-0.6,2393.052,13.34,0.067,58.9
13,2022-07-17T06:30:00,2400.0,42.79,6.0312,0.042,0.009,-0.022,63.0,58.0,61.0,13.3,1504.9,122.9,0.3,-0.5,2393.041,13.34,0.042,77.9
13,2022-07-17T07:00:00,2400.0,42.79,6.0312,0.056,0.015,-0.014,65.0,57.0,62.0,13.3,1504.9,124.0,-0.5,-0.5,2393.085,13.34,0.057,75.0
13,2022-07-17T07:30:00,2400.0,42.79,6.0312,0.061,0.003,-0.006,69.0,62.0,61.0,13.3,1504.9,125.4,0.2,-0.5,2393.113,13.34,0.061,87.2
13,2022-07-17T08:00:00,2400.0,42.79,6.0312,0.061,0.011,-0.015,67.0,63.0,62.0,13.3,1504.9,123.6,-0.4,-0.7,2393.106,13.34,0.061,79.8
13,2022-07-17T08:30:00,2400.0,42.79,6.0312,0.046,0.013,-0.023,68.0,62.0,61.0,13.3,1504.9,121.8,-0.1,-0.4,2393.122,13.34,0.047,74.2
13,2022-07-17T09:00:00,2400.0,42.79,6.0312,0.054,-0.016,-0.007,69.0,63.0,62.0,13.3,1504.9,125.3,-0.3,-0.4,2393.169,13.34,0.056,106.5
13,2022-07-17T09:30:00,2400.0,42.79,6.0312,0.053,-0.004,-0.013,66.0,61.0,65.0,13.3,1504.9,115.3,-0.1,-0.5,2393.114,13.34,0.053,94.3
13,2022-07-17T10:00:00,2400.0,42.79,6.0312,0.045,0.011,-0.009,66.0,61.0,61.0,13.3,1504.9,123.3,-0.2,-0.4,2393.165,13.34,0.046,76.3
13,2022-07-17T10:30:00,2400.0,42.79,6.0312,0.047,0.007,0.011,67.0,60.0,62.0,13.3,1504.9,132.5,0.1,-0.6,2393.13,13.34,0.047,81.5
13,2022-07-17T11:00:00,2400.0,42.79,6.0312,0.061,-0.002,-0.019,66.0,57.0,62.0,13.3,1504.9,132.5,0.0,-0.6,2393.13,13.34,0.061,91.9
13,2022-07-17T11:30:00,2400.0,42.79,6.0312,0.042,0.027,0.001,67.0,60.0,61.0,13.3,1504.9,123.6,-0.1,-0.5,2393.117,13.34,0.049,57.3
13,2022-07-17T12:00:00,2400.0,42.79,6.0312,0.042,-0.004,-0.018,67.0,57.0,59.0,13.3,1504.9,134.2,-0.3,-0.5,2393.088,13.34,0.042,95.4
13,2022-07-17T13:00:00,2400.0,42.79,6.0312,0.034,0.004,0.01,68.0,63.0,62.0,13.3,1504.9,126.9,-0.2,-0.4,2393.065,13.34,0.034,83.3
13,2022-07-17T13:30:00,2400.0,42.79,6.0312,0.054,-0.004,0.001,65.0,59.0,63.0,13.3,1504.9,130.2,-0.3,-0.4,2393.062,13.34,0.054,94.2
13,2022-07-17T14:00:00,2400.0,42.79,6.0312,0.048,-0.001,0.017,68.0,61.0,63.0,13.3,1504.9,131.8,-0.3,-0.6,2393.019,13.34,0.048,91.2
13,2022-07-17T14:30:00,2400.0,42.79,6.0312,0.035,0.004,0.0,64.0,59.0,62.0,13.3,1504.9,126.1,0.0,-0.5,2393.005,13.34,0.035,83.5
13,2022-07-17T15:00:00,2400.0,42.79,6.0312,0.041,0.001,-0.003,68.0,59.0,59.0,13.3,1504.9,130.2,-0.3,-0.5,2393.036,13.34,0.041,88.6
13,2022-07-17T15:30:00,2400.0,42.79,6.0312,0.018,-0.003,0.004,65.0,61.0,62.0,13.3,1504.9,133.0,0.0,-0.5,2393.001,13.34,0.018,99.5
13,2022-07-17T16:00:00,2400.0,42.79,6.0312,0.032,0.003,0.006,67.0,60.0,61.0,13.3,1504.9,131.7,-0.1,-0.5,2392.959,13.34,0.032,84.6
13,2022-07-17T16:30:00,2400.0,42.79,6.0312,0.019,-0.019,-0.007,65.0,58.0,60.0,13.3,1504.9,131.9,-0.1,-0.5,2393.018,13.34,0.026,135.0
13,2022-07-17T17:00:00,2400.0,42.79,6.0312,0.018,-0.007,-0.019,69.0,67.0,65.0,13.3,1504.9,128.6,-0.2,-0.5,2392.982,13.34,0.019,111.2
13,2022-07-17T17:30:00,2400.0,42.79,6.0312,0.026,-0.016,-0.025,68.0,60.0,61.0,13.3,1504.9,124.9,0.0,-0.5,2392.98,13.34,0.03,121.6
13,2022-07-17T18:00:00,2400.0,42.79,6.0312,0.028,-0.029,-0.016,66.0,60.0,62.0,13.3,1504.9,128.0,0.0,-0.5,2393.02,13.34,0.04,136.0
13,2022-07-17T18:30:00,2400.0,42.79,6.0312,0.038,0.002,-0.004,67.0,61.0,64.0,13.3,1504.9,129.9,-0.1,-0.5,2393.034,13.34,0.038,87.0
13,2022-07-17T19:00:00,2400.0,42.79,6.0312,0.021,-0.013,-0.028,70.0,62.0,64.0,13.3,1504.9,124.8,0.1,-0.5,2393.07,13.34,0.024,121.8
13,2022-07-17T19:30:00,2400.0,42.79,6.0312,0.039,0.005,-0.008,69.0,62.0,64.0,13.3,1504.9,126.7,-0.3,-0.5,2393.126,13.34,0.039,82.7
13,2022-07-17T20:00:00,2400.0,42.79,6.0312,0.031,-0.017,-0.022,68.0,64.0,64.0,13.3,1504.9,127.1,0.1,-0.5,2393.161,13.34,0.035,118.7
13,2022-07-17T20:30:00,2400.0,42.79,6.0312,0.045,0.0,0.004,68.0,65.0,64.0,13.3,1504.9,128.5,-0.1,-0.5,2393.215,13.34,0.045,90.0
13,2022-07-17T21:00:00,2400.0,42.79,6.0312,0.011,0.014,-0.024,70.0,63.0,64.0,13.3,1504.9,124.8,0.1,-0.3,2393.178,13.34,0.017,38.2
13,2022-07-17T21:30:00,2400.0,42.79,6.0312,0.041,0.026,0.0,67.0,63.0,64.0,13.3,1504.9,129.7,-0.2,-0.5,2393.212,13.34,0.048,57.6
13,2022-07-17T22:00:00,2400.0,42.79,6.0312,0.041,0.04,-0.029,69.0,63.0,67.0,13.3,1504.9,124.4,0.0,-0.5,2393.262,13.34,0.057,45.7
13,2022-07-17T22:30:00,2400.0,42.79,6.0312,0.045,0.021,-0.008,67.0,61.0,65.0,13.3,1504.9,130.0,0.0,-0.6,2393.281,13.34,0.049,65.0
13,2022-07-17T23:00:00,2400.0,42.79,6.0312,0.035,0.022,-0.009,71.0,63.0,66.0,13.3,1504.9,132.7,-0.2,-0.5,2393.221,13.34,0.041,57.8
